TimeAKDT,TemperatureF,Dew PointF,Humidity,Sea Level PressureIn,VisibilityMPH,Wind Direction,Wind SpeedMPH,Gust SpeedMPH,PrecipitationIn,Events,Conditions,WindDirDegrees,DateUTC
12:53 AM,66.9,59.0,76,30.26,10.0,WNW,5.8,-,N/A,,Scattered Clouds,300,2013-07-27 08:53:00
1:53 AM,64.9,57.9,78,30.27,10.0,WNW,6.9,-,N/A,,Scattered Clouds,300,2013-07-27 09:53:00
2:53 AM,64.9,57.9,78,30.27,10.0,WNW,5.8,-,N/A,,Scattered Clouds,300,2013-07-27 10:53:00
3:53 AM,64.0,59.0,84,30.27,10.0,WNW,6.9,-,N/A,,Scattered Clouds,300,2013-07-27 11:53:00
4:53 AM,64.0,61.0,90,30.27,10.0,WNW,4.6,-,N/A,,Scattered Clouds,300,2013-07-27 12:53:00
5:53 AM,64.0,59.0,84,30.27,10.0,NNW,3.5,-,N/A,,Scattered Clouds,330,2013-07-27 13:53:00
6:53 AM,64.0,60.1,87,30.28,10.0,NW,3.5,-,N/A,,Scattered Clouds,320,2013-07-27 14:53:00
7:53 AM,64.9,59.0,81,30.28,10.0,NW,3.5,-,N/A,,Scattered Clouds,310,2013-07-27 15:53:00
8:53 AM,66.0,60.1,81,30.29,10.0,SSE,5.8,-,N/A,,Scattered Clouds,160,2013-07-27 16:53:00
9:53 AM,70.0,60.1,71,30.29,10.0,South,3.5,-,N/A,,Scattered Clouds,170,2013-07-27 17:53:00
10:53 AM,73.9,60.1,62,30.30,10.0,Variable,3.5,-,N/A,,Scattered Clouds,0,2013-07-27 18:53:00
11:53 AM,75.0,61.0,62,30.30,10.0,SSW,4.6,-,N/A,,Scattered Clouds,210,2013-07-27 19:53:00
12:53 PM,75.9,60.1,58,30.31,10.0,Variable,4.6,-,N/A,,Scattered Clouds,0,2013-07-27 20:53:00
1:53 PM,78.1,59.0,52,30.30,10.0,Variable,6.9,-,N/A,,Scattered Clouds,0,2013-07-27 21:53:00
2:53 PM,78.1,62.1,58,30.30,10.0,South,8.1,17.3,N/A,,Scattered Clouds,190,2013-07-27 22:53:00
3:53 PM,78.1,61.0,56,30.30,10.0,SSW,12.7,-,N/A,,Scattered Clouds,210,2013-07-27 23:53:00
4:53 PM,78.1,62.1,58,30.30,10.0,SW,13.8,-,N/A,,Scattered Clouds,220,2013-07-28 00:53:00
5:53 PM,77.0,61.0,58,30.30,10.0,SSW,15.0,19.6,N/A,,Scattered Clouds,210,2013-07-28 01:53:00
6:53 PM,77.0,59.0,54,30.30,10.0,SW,12.7,-,N/A,,Scattered Clouds,230,2013-07-28 02:53:00
7:53 PM,75.0,60.1,60,30.29,10.0,WSW,13.8,-,N/A,,Partly Cloudy,240,2013-07-28 03:53:00
8:53 PM,73.0,57.9,59,30.30,10.0,WSW,15.0,-,N/A,,Scattered Clouds,240,2013-07-28 04:53:00
9:53 PM,71.1,57.9,63,30.31,10.0,WSW,10.4,-,N/A,,Scattered Clouds,240,2013-07-28 05:53:00
10:53 PM,66.9,57.9,73,30.32,10.0,WSW,10.4,-,N/A,,Scattered Clouds,240,2013-07-28 06:53:00
11:53 PM,63.0,57.0,81,30.33,10.0,WSW,10.4,-,N/A,,Scattered Clouds,250,2013-07-28 07:53:00